TimeAKDT,TemperatureF,Dew PointF,Humidity,Sea Level PressureIn,VisibilityMPH,Wind Direction,Wind SpeedMPH,Gust SpeedMPH,PrecipitationIn,Events,Conditions,WindDirDegrees,DateUTC
12:53 AM,51.1,48.0,89,30.17,10.0,Calm,Calm,-,0.00,Rain,Light Rain,0,2013-06-14 08:53:00
1:53 AM,51.1,46.9,86,30.17,10.0,Calm,Calm,-,0.00,Rain,Light Rain,0,2013-06-14 09:53:00
2:53 AM,51.1,48.0,89,30.17,10.0,Calm,Calm,-,0.00,Rain,Light Rain,0,2013-06-14 10:53:00
3:53 AM,50.0,48.0,93,30.17,8.0,Calm,Calm,-,0.01,Rain,Light Rain,0,2013-06-14 11:53:00
4:53 AM,48.9,46.9,93,30.18,10.0,WSW,3.5,-,0.00,Rain,Light Rain,240,2013-06-14 12:53:00
5:14 AM,48.0,46.0,93,30.18,10.0,Calm,Calm,-,0.00,,Mostly Cloudy,0,2013-06-14 13:14:00
5:53 AM,50.0,46.9,89,30.18,10.0,Calm,Calm,-,0.00,,Overcast,0,2013-06-14 13:53:00
6:32 AM,50.0,48.0,93,30.18,10.0,Calm,Calm,-,N/A,,Overcast,0,2013-06-14 14:32:00
6:53 AM,51.1,48.0,89,30.18,10.0,Calm,Calm,-,N/A,,Overcast,0,2013-06-14 14:53:00
7:53 AM,53.1,48.9,86,30.18,10.0,WNW,4.6,-,N/A,,Mostly Cloudy,290,2013-06-14 15:53:00
8:53 AM,54.0,48.9,83,30.18,10.0,West,9.2,-,N/A,,Mostly Cloudy,260,2013-06-14 16:53:00
9:53 AM,57.0,48.9,74,30.18,10.0,SW,9.2,-,N/A,,Mostly Cloudy,220,2013-06-14 17:53:00
10:53 AM,60.1,48.9,67,30.17,10.0,WSW,12.7,-,N/A,,Scattered Clouds,240,2013-06-14 18:53:00
11:53 AM,62.1,48.0,60,30.16,10.0,WSW,13.8,-,N/A,,Scattered Clouds,240,2013-06-14 19:53:00
12:53 PM,64.0,46.9,54,30.16,10.0,WSW,16.1,-,N/A,,Scattered Clouds,240,2013-06-14 20:53:00
1:53 PM,64.9,45.0,48,30.16,10.0,WSW,15.0,-,N/A,,Scattered Clouds,240,2013-06-14 21:53:00
2:53 PM,66.9,45.0,45,30.14,10.0,WSW,15.0,-,N/A,,Partly Cloudy,240,2013-06-14 22:53:00
3:53 PM,66.9,44.1,44,30.13,10.0,SW,15.0,-,N/A,,Partly Cloudy,230,2013-06-14 23:53:00
4:53 PM,66.9,44.1,44,30.13,10.0,SW,16.1,-,N/A,,Scattered Clouds,230,2013-06-15 00:53:00
5:53 PM,66.9,44.1,44,30.12,10.0,WSW,11.5,-,N/A,,Partly Cloudy,240,2013-06-15 01:53:00
6:53 PM,66.9,44.1,44,30.11,10.0,WSW,11.5,-,N/A,,Partly Cloudy,240,2013-06-15 02:53:00
7:53 PM,66.0,45.0,47,30.12,10.0,West,4.6,-,N/A,,Partly Cloudy,260,2013-06-15 03:53:00
8:53 PM,63.0,48.0,58,30.12,10.0,Calm,Calm,-,N/A,,Scattered Clouds,0,2013-06-15 04:53:00
9:53 PM,60.1,42.1,51,30.13,10.0,Calm,Calm,-,N/A,,Mostly Cloudy,0,2013-06-15 05:53:00
10:53 PM,55.0,46.9,74,30.14,10.0,Calm,Calm,-,N/A,,Mostly Cloudy,0,2013-06-15 06:53:00
11:53 PM,54.0,46.9,77,30.14,10.0,Calm,Calm,-,N/A,,Scattered Clouds,0,2013-06-15 07:53:00